Meteo Giornale » Osservazioni meteo Francia » Lille

ore: 04:30 - Osservazioni Meteo Lille
Lat. 50° 34' N Lon. 3° 6' E Alt. 48 metri s.l.m.

sereno Europe/Paris

12 °C

Sereno

Temp. 24 Ore

12 °C

21 °C

Sud

7.4 Km/h

Dew point 11 °C

Umidità 93 %

Visibilità  7 Km

Il sole sorge alle ore 07:37

Il sole tramonta alle ore 19:41

Data e Ora Cielo e Fenomeni T °C DP °C Um. % Pres. hPa Vis. km Vento km/h
Oggi h: 04:30 sereno Sereno 12 11 93 1016 7 S 7.4
Oggi h: 04:00 sereno Sereno 12 11 93 1016 8 S 9.3
Oggi h: 03:30 sereno Sereno 12 12 100 1016 9 S 11.1
Oggi h: 03:00 sereno Sereno 12 12 100 1016 9 S 11.1
Oggi h: 02:00 sereno Sereno 13 12 93 1016 10 S 9.3
Oggi h: 01:30 sereno Sereno 13 12 93 1016 10 S 7.4
Oggi h: 01:00 sereno Sereno 13 12 93 1016 10 S 11.1
Oggi h: 00:30 sereno Sereno 13 12 93 1017 10 N 5.5
Oggi h: 00:00 poco_nuvoloso Poco Nuvoloso 14 13 93 1017 10 S/SO 7.4
Ieri h: 23:30 molto_nuvoloso Molto Nuvoloso 14 12 87 1017 10 S 9.3
Ieri h: 23:00 sereno Sereno 14 12 87 1017 10 S 9.3
Ieri h: 22:30 sereno Sereno 14 12 87 1017 10 S/SO 7.4
Ieri h: 22:00 sereno Sereno 15 13 87 1017 10 SO 7.4
Ieri h: 21:30 sereno Sereno 15 12 82 1017 10 O/SO 11.1
Ieri h: 21:00 sereno Sereno 16 12 77 1017 10 O/SO 13
Ieri h: 20:30 sereno Sereno 17 13 77 1016 10 O/SO 14.8
Ieri h: 20:00 sereno Sereno 17 13 77 1016 10 O/SO 13
Ieri h: 19:30 sereno Sereno 18 13 72 1016 10 O 14.8
Ieri h: 19:00 poco_nuvoloso Poco Nuvoloso 19 13 68 1016 10 O 16.7
Ieri h: 18:30 molto_nuvoloso Molto Nuvoloso 20 14 68 1016 10 O/SO 18.5
Ieri h: 18:00 molto_nuvoloso Molto Nuvoloso 20 13 64 1016 10 O/SO 24
Ieri h: 17:30 molto_nuvoloso Molto Nuvoloso 21 14 64 1016 10 O/SO 24
Ieri h: 16:30 molto_nuvoloso Molto Nuvoloso 21 14 64 1016 10 SO 22.2
Ieri h: 16:00 molto_nuvoloso Molto Nuvoloso 20 14 68 1016 10 SO 20.3
Ieri h: 14:30 molto_nuvoloso Molto Nuvoloso 19 16 82 1017 10 O/SO 20.3
Ieri h: 14:00 coperto Coperto 18 16 88 1017 10 SO 20.3
Ieri h: 13:30 coperto Coperto 18 17 93 1017 10 O/SO 16.7
Ieri h: 13:00 coperto_pioggia Pioggia Debole 18 17 93 1017 10 SO 16.7
Ieri h: 12:30 coperto_pioggia Pioviggine 17 16 93 1018 7 O/SO 18.5
Ieri h: 12:00 coperto Coperto 18 16 88 1018 10 S/SO 16.7
Ieri h: 11:30 coperto Coperto 18 16 88 1018 10 S/SO 16.7
Ieri h: 11:00 molto_nuvoloso Molto Nuvoloso 18 16 88 1018 10 SO 16.7
Ieri h: 10:30 coperto Coperto 18 16 88 1018 10 S/SO 18.5
Ieri h: 09:30 molto_nuvoloso Molto Nuvoloso 17 16 93 1017 10 S/SO 11.1
Ieri h: 09:00 coperto Coperto 16 16 100 1017 10 S 7.4
Ieri h: 08:30 molto_nuvoloso Molto Nuvoloso 15 15 100 1017 9 N 5.5
Ieri h: 07:30 nebbia Banco di Nebbia 14 14 100 1017 0.8 N 5.5
Ieri h: 07:00 foschia Foschia 14 13 93 1017 5 S 7.4
Ieri h: 06:30 nuvoloso Nuvoloso 14 14 100 1017 7 S 7.4
Ieri h: 06:00 molto_nuvoloso Molto Nuvoloso 15 14 93 1018 8 S/SO 7.4